カタログに戻る

STARLINK-5863

運用中通信VLEO
NORAD 55922·PAYLOAD·🇺🇸 United States

打ち上げ Mar 17, 2023 から Vandenberg Space Force Base

Loading…

次のパス (今後24時間)

TLE

最新Source: CelesTrak SupGP

元期: Sep 15, 2026, 02:32 UTC

1 55922C 23037J   26258.10604167  .00012944  00000+0  10850-2 0  2589
2 55922  70.0018 186.8444 0003259 275.7853 332.8348 14.98315929    15

AllMySatでSTARLINK-5863をリアルタイム追跡

Download on the App Store